Krabi, Thailand

3:27 PM +07 on May 28, 2017 (GMT +0700)
Krabi

Weather History for VTSG - January, 2014

Change the Weather History Date:

Saturday, January 25, 2014

  Actual Average (VTSP) Record (VTSP)
Temperature  
Mean Temperature 80 °F -  
Max Temperature 93 °F 90 °F 95 °F (1997)
Min Temperature 66 °F 75 °F 68 °F (2014)
Cooling Degree Days 14    
Growing Degree Days 30 (Base 50)    
Moisture  
Dew Point 67 °F    
Average Humidity 66    
Maximum Humidity 94    
Minimum Humidity 38    
Precipitation  
Precipitation 0.00 in - - ()
Sea Level Pressure  
Sea Level Pressure 29.85 in    
Wind  
Wind Speed 4 mph ()    
Max Wind Speed 7 mph    
Max Gust Speed -    
Visibility 3.4 miles    
Events      
Averages and records for this station are not official NWS values.
T = Trace of Precipitation, MM = Missing Value Source: Averaged Metar Reports

Daily Weather History Graph

Daily Weather History Graph

Search for Another Location

Airport or City:

Trip Planner

Search our weather history database for the weather conditions in past years. The results will help you decide how hot, cold, wet, or windy it might be!

Date:

Astronomy

Jan. 25, 2014 Rise Set
Actual Time 6:43 AM +07 6:28 PM +07
Civil Twilight 6:21 AM +07 6:50 PM +07
Nautical Twilight 5:56 AM +07 7:16 PM +07
Astronomical Twilight 5:30 AM +07 7:41 PM +07
Moon 12:53 AM +07 (1/25) 12:59 PM +07 (1/25)
Length of Visible Light 12h 28m
Length of Day
11h 44m
Last Quarter, 39% of the Moon is Illuminated
Jan 25
Last Quarter
Jan 31
New
Feb 7
First Quarter
Feb 15
Full
Feb 23
Last Quarter

Hourly Weather History & Observations

Time (+07) Temp. Heat Index Dew Point Humidity Pressure Visibility Wind Dir Wind Speed Gust Speed Precip Events Conditions
1:00 AM 69.8 °F - 66.2 °F 88% 29.89 in 3.7 mi NE 4.6 mph - N/A   Mist
2:00 AM 69.8 °F - 66.2 °F 88% 29.89 in 3.1 mi NNE 3.5 mph - N/A   Mist
6:00 AM 68.0 °F - 66.2 °F 94% 29.86 in 2.2 mi NE 4.6 mph - N/A   Mist
7:00 AM 66.2 °F - 64.4 °F 94% 29.86 in 0.9 mi NE 4.6 mph - N/A   Mist
8:00 AM 69.8 °F - 68.0 °F 94% 29.89 in 2.2 mi NE 3.5 mph - N/A   Mist
9:00 AM 77.0 °F - 68.0 °F 74% 29.92 in 2.5 mi Variable 5.8 mph - N/A   Mist
10:00 AM 80.6 °F 83.2 °F 68.0 °F 65% 29.92 in 2.5 mi NE 5.8 mph - N/A   Partly Cloudy
11:00 AM 86.0 °F 91.8 °F 71.6 °F 62% 29.89 in 3.1 mi Variable 6.9 mph - N/A   Scattered Clouds
12:00 PM 87.8 °F 91.4 °F 68.0 °F 52% 29.86 in 3.7 mi Variable 5.8 mph - N/A   Partly Cloudy
1:00 PM 89.6 °F 93.4 °F 68.0 °F 49% 29.83 in 4.3 mi NE 6.9 mph - N/A   Partly Cloudy
2:00 PM 93.2 °F 94.9 °F 64.4 °F 38% 29.80 in 5.0 mi NE 5.8 mph - N/A   Scattered Clouds
3:00 PM 91.4 °F 93.2 °F 64.4 °F 41% 29.77 in 5.0 mi Variable 4.6 mph - N/A   Scattered Clouds
4:00 PM 91.4 °F 92.1 °F 62.6 °F 38% 29.77 in 5.0 mi Variable 3.5 mph - N/A   Partly Cloudy
5:00 PM 89.6 °F 91.1 °F 64.4 °F 43% 29.77 in 5.6 mi Variable 1.2 mph - N/A   Scattered Clouds
6:00 PM 87.8 °F 91.4 °F 68.0 °F 52% 29.80 in 3.7 mi Variable 2.3 mph - N/A   Scattered Clouds
7:00 PM 78.8 °F - 69.8 °F 74% 29.80 in 3.1 mi Calm Calm - N/A   Scattered Clouds
8:00 PM 78.8 °F - 69.8 °F 74% 29.86 in 2.5 mi Calm Calm - N/A   Scattered Clouds
9:00 PM 78.8 °F - 68.0 °F 69% 29.89 in 2.5 mi East 5.8 mph - N/A   Scattered Clouds
10:00 PM 77.0 °F - 68.0 °F 74% 29.89 in 3.1 mi ENE 4.6 mph - N/A   Scattered Clouds